Cosmos 1867 - Orbit

View from above orbital plane
View from above orbital plane
View from above satellite
View from above satellite

Ground track
Ground track

The orbit data is extracted from the following two-line orbital elements,

1 18187U 87060A   13145.20638906 -.00000060  00000-0  15112-4 0  7533
2 18187 065.0123 061.5781 0020596 276.0390 244.5913 14.30966203351653
Epoch (UTC): 25 May 2013 04:57:12
Eccentricity: 0.0020596
inclination: 65.0123°
perigee height: 774 km
apogee height: 803 km
right ascension of ascending node: 61.5781°
argument of perigee: 276.0390°
revolutions per day: 14.30966203
mean anomaly at epoch: 244.5913°
orbit number at epoch: 35165

The dashed part of the orbit path shows where the satellite is in the earth's shadow,  

Developed and maintained by Chris Peat, Heavens-Above GmbH. Please read the updated FAQ before sending e-mail. Imprint. DLR